Regional Weather Roundup
Issued by NWS

Home | Current Version | Previous Version | Text Only | Print | Product List | Glossary On
Versions: 1 2 3 4 5 6 7 8 9 10 11 12 13 14 15 16 17 18 19 20 21 22 23 24 25 26 27
000
ASUS45 KBOU 180807
RWRCO

WEATHER ROUNDUP FOR COLORADO
NATIONAL WEATHER SERVICE DENVER/BOULDER CO
100 AM MST WED JAN 18 2017

NOTE: "FAIR" INDICATES FEW OR NO CLOUDS BELOW 12000 FEET WITH NO
SIGNIFICANT WEATHER AND/OR OBSTRUCTIONS TO VISIBILITY.

COZ001>005-013-030-031-180900-
...NORTHWEST COLORADO...

CITY           SKY/WX    TMP DP  RH WIND       PRES   REMARKS
CRAIG          FOG        9   6  88 CALM      30.20S VSB 1/2
HAYDEN         FAIR      10   9  92 E7        30.16S WCI   0
MEEKER         FAIR      11   6  81 SW3       30.18S
MOUNT WERNER   NOT AVBL
STEAMBOAT SPGS   N/A      9   7  90 CALM      30.16F VSB 1/2
WALDEN           N/A    N/A N/A N/A CALM      30.14F VSB 1/2
$$

COZ006>008-011-180900-
...WEST CENTRAL VALLEYS...

CITY           SKY/WX    TMP DP  RH WIND       PRES   REMARKS
GRAND JUNCTION CLOUDY    31  29  92 CALM      30.17S
MONTROSE       CLOUDY    34  32  92 CALM      30.17F
EAGLE          FAIR      14  12  92 CALM      30.20F
RIFLE          MOCLDY    24  21  88 SW3       30.18S
DELTA          CLOUDY    37  30  75 CALM      30.17S
NUCLA          FAIR      28  27  93 CALM      30.19S
$$

COZ017>023-064>068-180900-
...SOUTHWEST COLORADO...

CITY           SKY/WX    TMP DP  RH WIND       PRES   REMARKS
DURANGO        MOCLDY    30  28  92 NW3       30.11F
CORTEZ         FAIR      28  27  96 E6        30.14S WCI  22
PAGOSA SPRINGS MOCLDY    31  31 100 CALM      30.13S
TELLURIDE      FAIR      20  16  83 SE6       30.15F WCI  12
WOLF CREEK PAS   N/A     16  16 100 W5        30.17S WCI   9
$$

COZ009-010-012-014-032>034-037-058>063-180900-
...CENTRAL COLORADO...

CITY           SKY/WX    TMP DP  RH WIND       PRES   REMARKS
ASPEN          FAIR      12   8  84 SW8       30.12F WCI   0
BUENA VISTA    FAIR      14   7  75 NW9       30.11F WCI   2
COPPER MTN     FAIR      28 -35   5 CALM      30.12F
BERTHOUD PASS  NOT AVBL
COTTONWOOD PAS FAIR      30   1  29 SW10      30.09F WCI  21
GUNNISON       CLOUDY    21  17  84 N6        30.17F WCI  13
KREMMLING      FOG       14  10  85 CALM      30.20S VSB 3/4
LEADVILLE      FAIR       0  -3  87 CALM      30.10F
MONARCH PASS     N/A     14  12  92 MISG      30.22F
SALIDA         FAIR      24  16  70 NW8       30.19S WCI  16
SUNLIGHT       FOG       18  14  86 CALM      30.16F VSB 1/4
WILKERSON PASS FAIR      27  -9  20 N7        30.13F WCI  19
$$

COZ069>075-180900-
...SAN LUIS VALLEY/SANGRE DE CRISTO MOUNTAINS...

CITY           SKY/WX    TMP DP  RH WIND       PRES   REMARKS
ALAMOSA        CLOUDY    24  23  96 SW3       30.12S
LA VETA PASS   FAIR      21  19  93 NE17      30.08F WCI   7
SAGUACHE       FAIR      16  12  86 NE8       30.11F WCI   5
$$

COZ035-036-038>040-180900-
...NORTHERN COLORADO FRONT RANGE...

CITY           SKY/WX    TMP DP  RH WIND       PRES   REMARKS
DENVER INTL AP FAIR      24  16  71 SW10      29.98F WCI  14
DMNS CITY PARK   N/A     27  20  75 S6        29.99S WCI  20
AURORA         CLEAR     28  19  69 S12       29.98F WCI  18
FRONT RANGE AP FAIR      27  16  63 S7        29.98F WCI  19
ERIE MUNI ARPT FAIR      16  13  88 CALM      29.99F
BOULDER MUN AP FAIR      30  21  69 S5        29.98F WCI  25
CENTENNIAL     FAIR      23  15  71 S6        29.98F WCI  16
BROOMFIELD     FAIR      32  14  47 N6        29.99F WCI  26
FORT COLLINS   FAIR      25  21  86 CALM      30.00S
LONGMONT       FAIR      19  15  82 CALM      30.02S
$$

COZ041-046-047-076>085-087-088-180900-
...PIKES PEAK/PALMER DIVIDE AND SOUTHERN FOOTHILLS...

CITY           SKY/WX    TMP DP  RH WIND       PRES   REMARKS
COLO. SPRINGS  FAIR      25  13  60 N9        30.01F WCI  15
A. F. ACADEMY  FAIR      19  14  80 N9        30.01F WCI   8
SCHRIEVER AFB  NOT AVBL
ELLICOTT       FAIR     N/A N/A N/A CALM      29.99F
FALCON         FAIR      22   8  57 W7        30.02F WCI  13
FORT CARSON    CLEAR     28  19  69 NE7       30.02F WCI  21
LIMON          FAIR      15  13  91 N6        30.00F WCI   6
MONUMENT HILL  FAIR      23  10  58 SW9       30.01F WCI  13
TRINIDAD       FAIR      32  25  75 W17       30.02F WCI  21
$$

COZ042>045-048>051-090-091-180900-
...NORTHEAST COLORADO...

CITY           SKY/WX    TMP DP  RH WIND       PRES   REMARKS
GREELEY ARPT   FAIR      20  18  92 N3        30.01F
AKRON          FAIR      27  21  78 W9        29.98F WCI  18
BURLINGTON     FAIR      30  27  88 SW9       30.00F WCI  22
WRAY           NOT AVBL
STERLING       FAIR      21  19  93 SW5       29.99F WCI  15
HOLYOKE        FAIR      19  16  86 SW6       30.00S WCI  11
FORT MORGAN    FAIR      21  18  88 W10       30.00F WCI   9
$$

COZ086-089-092>099-180900-
...SOUTHEAST COLORADO...

CITY           SKY/WX    TMP DP  RH WIND       PRES   REMARKS
PUEBLO         FAIR      26  23  88 CALM      30.01F
LA JUNTA       FOG       21  19  92 SW7       30.04F VSB 1/4 WCI  12
LAMAR          FAIR      19  16  88 SW9       30.04F WCI   8
SPRINGFIELD      N/A     31  30  96 SW8       30.02F WCI  23
$$




USA.gov is the U.S. government's official web portal to all federal, state and local government web resources and services.